RH
52 50 49 47 47 49 51 53 53 54 53 52 53 52 53 55 55 56 59 62 66 69 73 76 77 78 78 77 76 73 70 66 63 60 57 56 54 52 50 48 48 48 47 47 46 45 47 52 58 62 64 69 72 69 64 58 53 55 58 58 58 62 66 74 81 76 68 67 66 61 57 58 60 60 60 61 61 63 63 58 56 54 51 50 50
51 49 48 48 50 52 54 55 54 54 54 52 53 54 55 56 57 60 64 68 72 75 78 81 82 82 82 81 80 78 75 72 69 67 64 61 59 56 54 52 52 51 50 50 50 50 49 50 51 51 51 55 62 69 72 69 65 66 68 68 67 65 67 76 84 83 76 69 64 61 56 56 61 61 61 60 56 57 59 57 54 52 51 52 53
50 49 50 51 53 55 56 56 55 54 53 53 54 55 57 59 61 65 69 72 77 80 83 85 85 85 85 85 84 82 79 77 75 74 70 66 63 59 56 53 52 51 49 48 49 50 51 50 49 48 48 50 56 63 70 73 74 75 74 72 70 67 65 70 79 88 88 79 71 67 61 58 60 60 61 60 56 55 58 57 54 54 55 57 58
50 51 53 55 57 58 57 56 55 54 53 54 56 58 60 62 65 70 73 77 81 85 88 89 90 90 89 89 88 85 83 81 79 77 75 71 66 63 61 58 56 54 53 53 54 54 55 55 52 50 52 55 57 62 68 75 79 78 74 70 70 69 65 62 66 76 87 88 82 76 72 66 63 61 60 59 55 54 56 59 58 58 60 59 57
52 53 56 59 59 58 57 56 55 55 55 57 58 61 63 66 70 74 77 82 87 90 93 94 94 95 95 94 92 90 88 86 85 84 82 78 72 67 63 61 60 59 57 57 57 57 58 58 55 52 55 58 56 57 64 75 85 85 77 71 67 63 59 56 60 69 81 87 84 80 79 78 73 68 64 61 58 56 57 59 59 59 61 61 59
54 56 59 61 60 58 56 56 56 57 58 60 62 64 67 71 75 78 83 88 92 95 97 98 98 98 98 97 96 94 92 91 90 89 88 86 82 77 70 65 62 60 59 57 56 59 63 63 61 58 60 64 64 60 59 64 78 90 90 82 71 64 64 66 71 79 86 88 84 79 80 84 83 79 73 68 66 65 64 62 62 62 62 61 60
57 59 61 61 58 57 56 57 58 60 62 64 66 68 71 75 80 84 89 93 96 99 100 100 100 100 100 99 99 99 97 96 95 94 92 90 88 85 79 73 67 62 59 57 60 72 80 78 76 72 69 71 74 76 75 71 74 83 91 91 85 81 83 85 87 92 94 92 88 84 84 84 84 83 79 74 71 70 69 68 67 65 63 63 60
60 61 61 59 57 58 58 59 62 63 66 67 69 73 76 81 86 89 93 96 98 101 102 101 101 100 100 100 100 101 100 99 98 97 96 94 92 91 87 82 76 69 65 61 60 68 74 75 76 75 72 70 73 81 89 90 88 86 85 87 89 87 83 78 81 89 94 92 89 86 85 85 84 83 81 79 79 76 74 74 72 66 63 64 62
62 61 60 58 59 60 61 63 65 67 69 71 74 78 82 86 91 94 96 98 99 100 101 102 102 101 100 100 100 101 101 101 100 99 98 98 96 95 92 88 84 78 73 70 66 64 64 65 65 66 68 70 72 78 84 88 93 97 92 86 84 85 80 73 74 82 90 93 91 87 82 81 82 85 85 84 84 81 77 75 73 67 65 67 65
61 60 60 60 61 62 64 67 69 71 73 75 79 84 87 91 94 96 99 99 99 100 101 102 102 101 100 100 100 100 101 100 101 100 100 100 99 98 96 92 88 84 80 76 73 69 67 65 63 64 70 75 76 78 81 82 85 93 98 93 85 79 77 75 75 79 85 90 92 91 86 81 79 83 87 86 81 80 80 78 75 71 73 77 72
60 60 62 63 65 67 69 71 72 74 77 80 84 88 91 94 96 98 99 100 100 102 102 102 101 100 100 100 100 100 100 99 100 101 100 100 100 100 100 98 94 90 86 81 78 74 71 68 67 66 70 73 74 75 79 82 83 86 91 93 88 81 76 74 75 79 86 91 91 91 91 88 82 81 85 86 82 82 81 78 77 76 79 84 79
61 62 65 67 70 71 72 74 75 77 81 85 88 91 93 95 97 99 99 100 101 102 102 101 100 100 100 100 100 100 99 99 100 101 100 100 100 100 100 100 100 97 93 88 83 79 76 73 70 69 66 65 65 64 66 70 75 83 91 92 88 84 81 81 81 86 93 96 94 93 92 93 90 85 84 85 83 82 79 76 77 78 78 83 81
64 66 69 72 74 75 75 76 79 82 86 89 91 93 96 97 98 99 100 100 101 101 101 100 100 100 100 100 101 101 100 99 100 101 100 100 100 100 100 100 100 100 99 95 90 86 83 81 78 77 74 71 69 67 65 63 63 69 80 87 88 86 85 86 88 91 96 98 98 97 94 94 95 91 87 85 82 81 81 79 78 77 77 79 76
67 70 74 76 76 77 78 80 84 87 89 92 94 95 98 99 99 100 100 100 101 100 100 100 100 100 100 100 101 102 99 97 99 100 100 100 100 99 100 100 100 100 100 99 96 93 90 89 87 85 84 83 82 80 78 76 72 68 69 73 77 80 83 87 90 90 92 96 99 100 95 92 96 97 90 86 84 82 81 80 78 77 76 73 67
71 74 77 79 79 80 82 85 88 90 92 95 97 98 99 100 99 100 100 100 101 100 100 100 100 100 100 100 101 101 96 95 99 101 99 100 99 98 99 100 100 100 100 100 100 98 95 95 93 91 91 91 90 90 89 86 83 79 75 71 68 67 69 73 78 80 81 83 90 99 97 89 91 93 83 81 87 85 80 80 78 75 74 72 71
75 78 79 81 82 83 86 89 91 94 96 98 99 100 100 100 100 100 100 100 100 100 100 100 100 99 99 100 101 100 94 90 97 101 99 97 96 96 99 100 99 100 100 99 100 100 99 100 98 96 96 94 94 98 99 96 92 88 83 77 72 69 65 59 62 68 70 71 80 90 87 78 82 84 74 76 89 90 87 89 87 82 82 84 85
78 81 82 84 85 86 89 92 94 97 99 100 101 101 100 100 100 100 100 100 100 100 100 100 99 100 100 100 100 99 95 92 97 100 97 94 95 96 99 100 100 100 100 100 101 100 100 101 99 99 99 96 94 98 101 100 99 97 92 85 80 79 74 67 67 72 76 79 83 84 78 73 77 80 74 75 86 92 95 99 96 92 92 94 94
80 83 85 86 88 90 93 95 97 99 101 102 104 103 101 100 100 100 100 101 100 100 99 99 100 100 100 96 94 97 98 96 96 95 92 93 97 97 97 100 101 100 100 100 100 100 100 100 99 99 100 95 93 98 102 101 100 101 99 94 89 86 82 77 78 84 89 92 92 90 87 84 83 85 85 83 84 91 100 100 95 95 97 97 97
82 86 88 89 91 94 96 98 100 101 102 104 105 104 101 100 100 100 100 100 100 100 99 100 100 98 96 92 91 96 99 95 92 91 90 93 98 98 98 100 100 100 100 100 100 100 100 100 99 100 100 95 92 96 101 100 99 101 100 99 98 93 87 83 85 89 94 97 97 94 89 85 85 87 84 75 73 87 100 100 96 97 97 96 96
85 88 91 93 95 97 99 100 101 101 102 105 105 104 103 102 101 101 100 100 101 100 99 101 101 97 95 92 91 94 95 89 86 89 91 92 96 99 100 100 100 100 100 100 100 100 100 100 100 100 100 99 97 98 101 101 100 100 99 102 101 93 88 90 92 94 96 96 96 92 83 75 71 67 63 58 61 79 97 100 99 100 98 97 97
88 92 94 97 99 100 100 101 101 102 102 103 105 104 102 102 102 101 100 100 101 100 100 102 102 99 97 93 90 91 89 84 83 87 91 93 95 97 100 100 100 100 100 100 100 100 100 100 100 98 99 101 99 96 96 97 99 101 100 99 93 85 87 95 97 97 100 98 95 93 88 81 69 57 57 63 65 76 94 102 100 99 99 98 98
92 95 97 100 100 101 101 101 101 101 100 100 103 103 101 101 102 101 102 102 100 100 102 101 100 101 97 91 89 87 82 81 84 86 88 93 95 97 99 100 100 100 100 100 100 100 100 100 98 96 97 98 95 91 89 89 93 99 100 98 93 89 92 97 96 96 99 98 96 94 92 89 82 72 74 79 73 76 92 101 98 96 98 99 98
95 98 100 101 101 100 100 100 99 98 97 98 102 103 102 102 102 101 103 103 102 102 102 99 99 100 95 91 92 87 79 80 85 84 86 92 95 97 99 100 100 100 100 100 100 100 100 100 99 98 97 96 92 89 90 93 93 92 92 93 95 98 99 99 98 100 100 97 98 99 96 94 92 90 92 90 78 74 84 90 89 88 89 88 87
97 101 101 101 99 98 99 98 96 95 97 100 103 103 102 101 101 101 101 102 103 103 100 98 100 99 94 93 95 90 83 83 84 84 90 94 96 99 101 100 100 100 100 100 100 100 100 100 100 100 100 99 95 91 93 98 98 94 89 86 90 97 100 100 100 100 100 99 99 100 98 97 96 96 96 90 76 70 75 79 76 72 70 70 73
100 102 102 100 97 96 97 96 95 97 100 102 103 103 101 101 101 100 100 102 103 103 100 99 100 98 95 97 98 93 88 86 84 87 94 96 97 100 101 99 101 101 100 101 100 100 101 100 100 100 100 100 98 94 92 92 91 90 89 87 88 92 96 100 101 100 100 100 99 97 96 96 95 93 89 85 79 76 77 77 74 73 76 80 85
101 101 100 98 95 95 97 97 98 100 101 100 101 101 101 101 102 101 101 101 101 101 101 101 100 98 97 99 100 95 90 88 89 92 97 98 99 101 100 100 100 99 99 100 100 100 100 100 100 101 100 100 99 97 95 92 90 90 90 91 93 94 96 100 101 100 100 98 96 96 95 93 92 89 86 88 91 89 85 82 85 90 95 98 99
99 99 98 95 94 95 99 102 103 101 99 98 99 100 100 101 102 102 102 101 100 100 100 100 100 100 100 100 100 96 93 92 94 96 98 100 100 100 100 100 100 99 99 100 100 100 100 100 100 97 94 93 93 93 93 94 97 99 97 95 95 95 97 100 98 97 98 96 93 94 94 92 93 92 92 95 96 91 86 88 95 100 100 100 100
96 99 97 94 94 97 101 104 102 100 99 99 100 100 100 101 102 103 101 101 101 101 100 100 100 100 100 100 100 98 97 97 99 100 100 101 101 100 100 100 100 99 99 100 100 99 95 92 91 88 86 87 89 89 88 88 92 96 98 98 97 94 95 99 98 97 97 95 92 93 93 93 95 95 95 97 95 89 88 94 100 101 99 100 101
96 98 96 94 96 99 101 100 98 99 101 100 99 100 100 101 103 103 101 101 100 99 100 101 101 100 100 100 100 100 100 100 100 100 100 100 100 100 100 100 100 100 101 100 98 94 91 92 92 91 92 95 95 95 95 94 93 92 93 96 99 98 97 99 100 98 96 95 96 97 96 95 94 93 93 95 94 91 93 97 100 100 100 100 100
98 97 96 97 97 100 101 99 97 100 102 100 99 100 99 99 102 103 101 100 98 97 99 101 100 100 101 100 100 101 101 100 100 100 100 100 100 100 100 100 100 100 100 96 90 89 93 98 99 98 99 100 99 99 100 100 99 97 94 94 95 96 97 99 100 98 97 97 97 99 98 98 97 94 93 93 93 93 96 99 100 100 100 100 100
98 97 97 98 98 100 101 100 99 102 101 98 100 103 100 97 98 99 100 100 99 99 100 100 100 101 100 100 100 100 100 100 100 100 100 100 100 100 101 100 100 102 101 94 90 94 98 99 99 100 100 100 101 101 101 100 100 100 100 98 96 95 96 97 97 98 99 99 98 98 98 98 97 94 93 92 90 91 97 100 100 100 100 100 100
97 95 97 99 98 100 101 100 101 104 102 97 99 104 102 98 98 98 98 99 101 102 102 100 100 100 100 100 100 100 100 101 100 100 101 100 100 100 100 99 100 101 96 92 95 101 101 100 100 101 100 100 101 100 100 100 100 100 100 100 99 99 98 97 97 97 98 99 100 99 99 98 97 94 93 91 90 91 96 100 100 100 100 100 100
94 95 97 99 98 99 101 101 101 102 100 98 101 104 102 102 102 99 96 97 98 98 100 102 102 101 100 100 100 100 100 100 100 100 100 100 100 100 100 101 103 98 90 90 97 102 101 100 101 100 100 101 101 100 100 100 100 100 100 100 100 100 100 99 97 95 95 97 98 99 99 100 100 99 97 95 95 96 99 100 100 100 100 100 100
94 96 98 99 98 99 100 101 101 100 97 97 102 105 102 101 101 99 97 97 94 92 92 95 98 101 102 100 100 100 100 100 100 101 100 100 102 101 95 93 94 93 92 97 101 101 100 101 101 100 100 100 100 100 100 100 100 100 100 100 100 100 100 100 99 97 96 95 95 96 98 98 98 100 100 99 99 99 100 100 100 100 100 100 100
94 96 97 98 99 100 100 101 102 100 96 97 102 103 99 97 98 98 97 97 97 96 93 89 91 99 103 102 100 100 100 100 100 99 100 101 100 93 87 86 89 92 95 99 100 100 100 101 100 100 100 100 100 100 100 100 100 101 100 100 100 100 100 100 100 100 100 98 96 96 96 95 96 99 100 100 100 100 100 100 100 99 98 99 100
92 94 94 94 95 98 100 102 101 99 97 100 103 99 94 94 96 97 95 94 96 99 97 91 91 95 98 100 101 100 100 102 101 100 102 101 92 84 88 96 99 100 100 100 100 100 100 100 100 100 100 100 100 100 100 100 100 100 101 101 101 100 100 100 100 101 101 100 99 98 96 95 96 99 100 100 100 100 100 100 99 99 98 98 99
88 88 89 91 94 99 102 102 101 98 99 101 101 96 92 95 97 95 92 94 97 98 96 95 96 94 93 97 100 97 95 99 101 100 101 100 91 87 96 103 102 100 101 100 100 100 100 100 101 100 100 100 100 100 101 100 100 101 102 101 100 100 101 100 100 101 101 100 100 101 100 98 98 98 100 100 100 100 100 99 99 99 99 98 98
83 84 86 90 96 100 102 101 99 98 100 102 100 95 95 98 99 95 91 93 97 97 95 97 99 97 96 99 102 96 89 90 94 95 97 98 96 96 101 104 101 101 101 100 100 101 100 100 100 100 100 100 100 100 101 101 101 102 102 100 99 99 100 100 99 99 100 100 100 100 100 100 100 100 100 100 100 100 100 99 99 100 100 100 99
82 83 87 93 99 101 101 101 100 99 102 103 100 96 97 99 98 94 92 94 95 96 96 98 98 97 98 101 103 99 92 91 97 100 100 101 101 101 101 101 100 100 100 100 100 101 100 100 100 100 100 100 100 100 100 101 101 103 103 101 99 98 100 101 100 99 100 101 101 101 101 100 100 100 100 100 100 100 100 100 100 99 100 99 98
81 83 88 95 101 101 100 101 101 101 102 103 100 97 98 99 97 96 96 97 96 96 97 98 97 96 98 101 102 99 97 98 102 103 102 101 101 100 100 101 100 100 100 100 100 100 100 100 100 100 100 100 100 100 100 100 101 103 103 102 101 101 101 100 100 100 100 100 100 101 102 101 100 101 101 101 101 100 100 101 100 99 99 98 98
80 85 88 93 99 101 101 102 102 102 103 102 100 98 98 98 99 99 98 97 96 96 97 98 96 95 98 102 102 100 99 100 102 102 101 101 101 100 100 100 100 100 100 100 100 100 100 100 100 100 100 100 100 100 101 100 101 102 102 102 102 102 101 100 99 99 99 99 99 101 101 101 101 101 100 100 101 101 100 100 101 100 100 100 100
81 84 86 89 95 100 101 101 101 102 103 102 99 99 99 98 99 100 97 95 95 96 96 97 96 95 97 102 104 101 100 101 103 103 102 102 102 101 101 101 101 101 100 100 100 100 100 100 100 100 100 100 100 100 100 100 100 101 101 101 101 99 96 96 98 100 100 99 99 100 101 102 102 101 100 100 101 101 101 101 100 100 100 100 100
81 83 85 87 91 95 97 98 100 101 102 101 99 100 100 99 98 98 96 94 95 96 95 96 96 95 95 97 99 98 98 100 103 104 103 103 104 104 103 103 103 101 100 100 100 100 100 101 102 101 101 101 100 100 100 100 100 100 100 101 102 99 93 88 89 94 97 99 99 100 101 101 101 101 102 101 101 101 102 101 101 101 101 101 101
83 85 87 89 91 94 96 99 101 101 100 101 102 102 100 97 95 95 95 94 95 96 96 96 96 96 95 95 96 96 97 99 101 103 103 103 104 105 105 105 105 103 101 100 100 100 100 100 102 102 102 101 100 100 100 100 100 100 100 100 101 101 95 87 83 85 91 97 100 101 101 101 101 101 102 102 102 101 101 101 101 102 102 101 101
84 86 89 90 92 95 97 98 100 100 100 100 101 100 98 97 96 96 95 95 96 97 97 96 95 96 96 96 97 98 98 98 100 101 102 103 104 104 104 105 105 105 103 101 100 100 100 100 100 102 103 103 102 102 102 101 101 100 100 100 100 101 100 92 83 79 85 94 100 102 101 101 102 101 101 102 102 101 101 102 101 101 102 102 102
85 87 89 90 91 93 95 95 98 100 99 98 98 98 97 97 97 97 96 97 97 98 97 95 95 95 96 96 98 99 99 99 99 100 100 102 103 103 102 103 104 105 105 103 101 101 101 100 100 101 102 102 103 104 104 104 103 102 101 100 101 102 101 95 83 76 78 86 95 101 101 101 101 102 102 102 102 101 101 102 102 101 102 102 102
87 88 89 90 90 91 92 94 96 99 98 97 97 97 97 97 97 97 97 98 99 98 96 95 96 96 96 96 97 98 99 99 98 98 99 100 101 101 101 101 102 104 105 104 103 103 102 100 100 101 101 101 103 104 105 105 105 104 103 102 102 103 101 96 86 77 73 76 84 93 99 101 101 101 101 102 103 102 101 101 101 101 101 101 101
90 90 91 91 91 91 92 94 96 98 97 96 97 97 97 97 97 97 97 97 98 98 97 96 97 98 97 96 97 99 99 98 97 98 98 98 98 98 98 99 100 101 103 104 104 105 104 103 102 103 104 103 103 104 104 104 105 105 104 103 103 101 98 95 89 81 73 70 72 78 87 93 97 100 101 101 102 103 102 100 101 101 100 99 100
90 91 92 91 90 90 91 93 94 94 94 95 96 97 97 96 96 96 96 97 98 98 97 97 98 99 98 97 98 99 99 98 97 98 99 97 96 96 96 97 98 99 101 102 103 105 105 105 105 105 105 105 104 104 102 102 103 104 104 104 103 99 93 91 89 84 77 70 66 66 70 77 84 91 96 98 99 100 100 100 100 100 100 100 99
90 91 91 90 89 89 90 91 93 93 92 93 93 94 95 95 95 94 95 96 97 97 97 98 98 98 98 98 100 102 101 99 97 97 98 97 96 96 95 94 95 97 98 100 102 103 104 105 105 105 105 105 104 104 102 101 101 103 103 103 104 101 95 89 87 84 80 75 70 66 64 64 68 73 79 84 88 91 94 96 98 98 98 98 98
89 90 91 91 90 90 91 93 94 93 92 91 92 92 93 94 93 93 94 94 94 95 97 97 97 96 97 99 101 102 101 99 97 98 98 98 97 97 95 94 95 96 96 97 99 101 102 104 105 105 105 104 103 103 103 103 102 102 102 102 102 102 100 95 90 86 83 80 76 72 68 64 62 63 65 68 73 77 81 86 90 93 94 94 94
Wind_Speed
18 18 18 18 18 19 19 20 20 20 20 21 22 22 21 21 21 21 22 22 23 24 23 22 21 21 21 21 21 21 21 21 21 21 21 21 21 21 21 22 22 21 21 22 22 22 22 22 22 21 20 20 20 18 17 18 20 21 22 24 25 22 18 13 9 10 13 16 19 24 28 28 27 26 24 21 17 15 15 15 16 17 18 18 17
17 17 18 18 18 19 20 21 21 22 22 23 23 22 21 20 21 21 22 23 23 23 23 22 21 21 21 21 22 21 22 22 22 22 23 23 23 22 22 22 23 23 23 23 22 21 22 23 23 23 22 21 19 17 18 20 22 24 24 23 23 23 20 15 11 10 11 15 19 22 25 28 28 27 26 24 22 20 19 20 20 21 21 20 18
17 17 18 18 19 20 21 22 22 23 23 23 22 21 22 22 22 22 23 24 24 24 23 22 22 22 22 22 22 21 21 22 22 22 23 23 24 24 24 24 25 25 26 27 26 25 24 25 25 24 24 23 20 18 18 21 24 26 27 25 23 23 23 19 15 13 12 15 19 21 22 25 28 28 27 25 24 22 21 21 22 23 22 19 18
17 18 19 19 20 20 21 21 21 22 22 23 23 23 24 24 23 23 24 24 24 24 22 21 21 22 22 21 21 21 21 21 21 22 22 22 22 22 23 24 25 25 25 26 26 26 26 26 26 25 24 23 21 19 18 21 26 28 30 29 26 24 23 22 20 18 16 16 18 21 22 23 27 28 27 26 25 24 23 22 22 23 22 20 19
18 18 19 20 20 20 20 20 21 22 23 24 25 25 25 24 24 24 24 24 23 22 21 20 21 21 22 21 21 21 21 21 22 23 23 23 24 23 23 23 24 24 24 24 25 26 26 27 28 27 26 24 23 21 20 21 25 27 30 31 29 26 25 25 23 21 20 19 20 22 22 23 26 27 26 26 25 25 24 24 23 24 24 21 20
18 19 20 21 21 21 21 21 22 22 24 25 26 25 25 25 25 25 25 24 24 22 22 21 21 21 22 22 22 22 22 22 24 25 25 25 25 25 25 25 26 25 25 25 26 27 27 27 27 27 27 25 24 24 24 24 25 24 24 26 27 26 25 24 22 21 21 21 22 22 22 23 24 26 25 24 24 24 23 24 25 26 25 22 21
18 19 20 21 21 21 21 22 22 23 24 25 25 25 25 25 26 26 26 25 25 24 22 22 22 22 23 23 23 23 23 23 24 25 26 26 26 26 27 27 28 28 27 27 27 26 26 26 26 26 26 26 24 24 25 25 26 26 23 21 20 20 19 18 17 18 20 20 20 20 21 23 24 26 26 25 25 25 24 23 24 25 24 22 22
18 19 20 20 20 20 21 21 22 23 24 24 24 24 26 27 27 27 27 26 25 24 23 23 24 24 25 25 25 24 24 25 25 25 26 27 26 27 27 27 27 27 28 28 29 28 28 28 27 27 27 28 27 26 25 24 24 26 27 25 21 18 18 17 16 17 18 20 20 20 21 22 24 25 26 25 24 24 25 23 23 24 24 23 23
18 18 18 18 19 20 21 22 23 23 23 23 24 25 27 28 28 28 27 27 26 26 25 26 26 27 28 28 26 26 26 27 28 26 26 26 26 26 27 26 27 27 27 28 29 30 31 30 30 30 29 30 30 29 28 26 25 25 27 28 26 23 21 20 19 18 18 18 19 20 20 20 22 22 22 22 23 24 25 23 21 24 24 23 23
17 17 17 18 20 21 22 22 22 22 22 23 25 26 27 28 28 28 28 28 28 27 27 26 25 26 28 28 27 27 27 28 28 26 25 25 26 26 27 27 27 27 28 28 29 30 31 32 32 33 31 30 30 30 30 30 29 27 26 27 29 29 26 24 23 21 20 17 17 18 16 17 21 22 21 23 25 26 24 22 23 25 21 17 20
16 16 17 18 20 21 21 21 21 22 23 24 26 26 27 28 28 29 29 29 28 28 27 25 23 24 26 28 28 28 29 28 28 26 25 25 25 26 27 29 29 29 29 30 31 31 32 33 34 34 33 32 32 33 32 32 32 31 29 28 30 31 30 28 26 24 22 19 18 18 15 16 22 24 22 23 24 25 24 24 24 23 17 13 13
16 17 17 18 19 20 21 21 21 22 24 25 25 26 27 28 28 28 29 29 29 27 25 24 23 24 26 27 27 28 30 30 28 27 26 25 24 25 26 28 29 31 31 31 33 33 33 33 34 35 35 35 35 35 36 36 35 34 32 30 31 31 30 29 28 25 23 20 18 19 18 18 20 22 23 23 23 24 25 26 25 23 20 17 15
18 19 18 18 19 19 20 21 22 23 24 25 25 26 27 27 27 28 28 28 28 27 25 25 25 25 25 27 27 28 30 31 29 28 27 26 24 24 25 26 28 30 32 32 33 34 33 32 32 34 35 35 34 35 35 37 38 38 36 33 33 32 31 31 30 28 27 25 21 21 22 22 20 21 23 23 24 24 23 24 26 25 24 23 23
20 21 20 19 19 19 20 21 22 24 24 24 26 26 26 27 27 27 27 27 27 27 27 26 26 25 25 26 28 29 30 31 30 28 27 26 25 23 23 25 27 28 30 32 33 34 34 33 31 33 34 33 34 35 35 34 35 37 38 38 38 37 35 33 32 32 31 30 27 26 28 28 25 24 25 25 25 26 24 24 27 29 28 27 27
21 21 20 19 19 19 20 21 22 24 25 24 25 25 25 26 26 26 26 26 26 27 27 26 25 25 25 25 27 30 31 30 29 28 28 27 24 24 23 24 26 28 29 30 33 34 35 33 33 34 34 33 34 34 34 34 34 33 35 37 39 40 40 40 39 38 36 35 32 30 32 33 30 28 29 28 26 25 24 24 26 29 29 26 22
21 20 20 20 20 20 20 21 23 24 24 24 24 24 25 25 25 25 25 26 25 25 24 25 25 26 25 25 27 29 31 30 29 30 28 24 19 17 22 25 25 27 29 30 31 33 33 33 33 34 34 35 35 32 31 32 32 31 32 34 35 36 40 43 43 42 41 40 36 33 34 35 33 31 30 29 26 22 18 17 18 20 21 17 14
20 20 21 21 21 20 21 22 24 24 23 23 23 23 23 24 24 24 24 24 23 23 25 26 26 26 26 26 26 28 30 29 28 28 26 23 23 18 15 23 25 26 28 29 30 31 32 32 33 34 34 36 36 34 30 29 29 30 31 32 32 33 36 39 39 38 38 38 37 36 35 35 33 31 30 29 27 25 20 15 13 16 16 10 8
20 20 21 21 21 21 22 23 23 23 23 23 23 23 23 24 24 23 21 21 21 23 25 26 26 25 26 26 26 27 28 27 25 24 24 23 22 23 18 13 20 25 26 26 27 28 30 31 32 33 34 35 36 34 30 29 30 30 30 30 30 31 34 35 34 33 34 34 35 35 34 34 33 32 31 29 28 26 24 21 18 17 16 10 8
20 20 21 22 22 23 22 22 21 22 24 24 23 23 24 23 23 21 20 20 22 24 24 25 26 26 25 25 25 25 24 23 22 21 22 23 21 22 22 17 13 16 20 23 24 25 27 30 31 32 33 34 34 33 29 29 31 31 30 27 26 29 34 35 33 32 32 32 33 33 33 32 32 31 31 30 29 27 27 27 24 21 18 14 13
20 21 21 22 23 22 21 21 22 23 25 25 24 23 22 22 22 21 21 23 24 25 25 25 26 26 25 24 24 22 20 20 21 21 20 21 21 21 21 19 17 16 15 15 17 18 21 24 27 29 31 32 32 31 29 28 30 33 32 27 26 32 35 32 30 31 31 31 31 30 31 31 31 31 30 31 30 28 28 29 28 24 21 18 17
19 20 22 22 22 21 21 22 23 24 24 23 23 22 21 21 21 21 23 24 23 24 25 25 25 25 23 22 22 19 18 19 20 20 20 19 20 21 21 19 18 18 17 15 13 13 14 16 19 21 23 26 28 29 30 29 29 33 35 33 34 37 34 29 29 30 29 29 29 28 28 28 29 29 29 29 28 27 28 30 30 27 25 23 20
19 20 21 22 22 22 23 23 23 23 22 21 21 21 20 20 20 21 22 22 22 23 24 23 23 23 22 21 19 17 17 18 19 20 20 20 20 21 20 20 19 18 18 16 15 14 15 17 18 19 19 21 23 25 27 28 27 29 33 36 39 39 34 30 29 28 27 27 28 27 26 26 27 27 28 27 27 27 27 29 29 28 28 28 26
18 19 20 21 23 23 23 23 23 22 21 19 19 20 20 19 19 20 20 20 21 21 22 22 22 21 21 21 17 15 17 18 19 20 21 21 21 21 20 19 19 19 18 16 15 16 18 20 20 20 20 22 22 22 23 25 26 26 27 29 34 37 36 33 29 26 26 26 25 25 25 25 26 26 27 28 28 27 26 26 27 27 27 28 28
17 18 20 21 23 24 23 23 21 19 18 18 18 19 19 18 18 18 18 19 19 19 20 21 19 18 20 20 16 14 17 19 20 21 21 20 21 22 21 20 20 19 18 17 16 18 20 21 21 21 22 22 21 20 19 20 22 24 24 24 24 26 30 32 30 26 24 23 22 23 24 25 26 26 28 29 28 26 26 26 25 25 25 24 24
16 18 20 21 22 23 23 21 19 17 16 16 17 18 17 17 17 17 18 19 18 18 19 19 17 17 19 17 14 15 18 20 21 21 19 20 22 21 21 22 21 20 18 17 17 18 19 20 21 21 20 20 20 19 19 20 20 20 21 22 22 21 22 25 28 26 23 22 22 22 23 25 27 28 29 29 27 26 25 25 23 22 22 22 22
17 18 20 20 21 21 22 20 18 16 16 16 16 16 15 15 16 16 17 18 18 18 18 17 15 17 16 13 13 17 19 20 20 20 20 21 22 22 23 23 21 20 19 17 18 19 20 20 19 18 17 16 16 16 17 19 19 19 19 19 21 21 19 20 25 24 21 22 22 22 24 26 28 29 28 27 26 25 24 23 22 22 22 23 23
17 18 19 19 20 20 20 19 17 16 17 17 16 16 14 13 14 15 16 17 17 18 18 17 15 15 13 11 13 17 18 19 19 19 21 23 23 24 24 23 23 23 21 18 18 20 20 17 15 14 14 13 12 12 11 11 11 13 16 19 20 19 18 19 25 26 24 23 21 22 24 25 26 27 26 25 24 24 24 23 23 23 24 24 23
16 17 17 18 18 18 18 17 16 16 17 17 17 16 15 14 14 14 15 16 17 19 18 15 13 12 12 12 14 16 16 17 18 21 23 23 23 23 23 23 25 23 19 17 17 16 14 12 11 12 12 12 13 13 12 11 10 8 8 12 16 17 18 21 25 25 24 22 21 22 23 24 23 24 24 24 24 25 25 25 25 25 25 24 22
15 16 16 16 16 16 16 16 15 16 17 17 17 16 14 14 14 14 14 14 14 15 16 14 13 14 14 13 14 14 15 17 19 21 22 21 21 21 22 22 21 17 13 12 12 10 8 9 11 13 14 14 15 15 16 15 14 13 12 9 6 8 13 19 24 25 24 23 21 21 22 23 23 23 22 23 24 26 26 27 26 25 25 24 22
15 15 14 14 14 15 15 15 14 15 16 18 18 17 15 13 12 11 11 11 11 12 13 13 14 15 15 14 13 13 15 18 20 20 19 19 19 18 19 17 14 12 11 9 7 9 11 12 13 14 14 14 13 14 15 16 16 15 15 14 12 10 6 6 12 17 21 23 24 24 23 22 23 24 23 23 24 25 26 27 27 25 25 25 22
14 15 13 13 13 14 14 14 14 14 15 16 17 18 17 15 12 10 9 10 11 12 11 12 13 14 14 14 14 13 15 17 18 17 17 17 18 16 15 13 13 11 9 8 11 14 15 13 12 13 13 13 13 13 14 14 15 15 16 15 14 14 13 10 6 4 7 14 19 23 25 24 23 24 24 24 24 24 25 27 27 25 26 25 23
14 14 13 13 13 13 13 14 14 14 14 14 15 16 17 18 15 12 10 10 11 11 12 13 15 14 13 13 14 16 16 16 15 16 16 16 16 13 11 13 15 11 7 9 14 15 14 13 13 13 13 13 13 14 14 14 14 15 15 15 15 16 16 14 11 9 6 6 9 13 19 23 25 25 25 26 25 25 25 26 26 26 25 25 23
14 13 13 13 13 12 12 13 13 13 13 13 13 14 16 16 16 15 15 14 12 10 11 14 16 15 15 14 15 17 17 15 14 15 15 16 16 11 9 12 16 15 13 15 16 15 13 13 13 14 14 14 14 15 15 15 15 15 14 14 15 16 16 15 12 10 9 8 7 9 10 13 18 22 24 25 25 24 24 25 26 26 24 23 22
13 13 12 12 12 12 11 12 13 13 12 11 12 13 14 14 14 14 16 16 16 15 16 17 17 17 16 16 17 18 17 14 14 15 16 17 16 10 7 10 15 19 21 20 18 16 14 13 14 15 15 14 15 15 15 15 15 15 14 15 16 16 16 15 14 13 11 9 9 9 9 8 9 14 19 22 22 22 23 24 24 23 22 20 20
13 12 11 11 11 11 10 10 12 13 12 10 10 11 12 13 12 12 12 13 15 16 18 20 19 17 16 16 18 18 17 15 15 15 17 18 15 10 10 14 18 21 23 21 18 16 15 14 15 15 15 15 15 15 15 16 16 15 15 16 16 16 16 15 15 15 13 11 10 10 10 9 9 11 15 19 21 21 20 22 23 23 22 20 19
14 13 12 11 10 9 9 9 10 11 10 10 9 10 11 11 11 10 10 11 12 13 16 18 19 17 16 16 17 19 17 15 15 16 18 18 17 15 17 19 19 18 19 19 17 16 16 16 17 17 16 16 17 17 16 16 16 16 16 16 15 16 16 15 15 14 13 12 11 11 10 9 10 11 13 17 22 22 21 22 23 23 23 22 21
14 13 12 10 8 8 8 8 9 9 9 8 8 8 9 9 9 9 9 10 11 11 14 16 17 19 19 18 19 20 18 14 14 16 18 19 21 22 21 19 16 16 17 18 17 16 17 17 18 18 18 18 18 18 17 17 17 17 16 15 14 15 15 16 15 14 13 13 12 12 11 10 10 11 11 13 19 22 22 22 23 22 22 22 21
14 13 11 10 7 7 8 8 8 7 7 7 7 7 7 8 8 8 9 9 9 10 13 15 16 18 19 19 18 19 17 16 17 20 21 22 23 23 21 18 16 16 16 16 16 16 17 18 18 18 17 18 19 18 17 17 17 17 17 16 14 13 14 16 17 16 15 14 14 13 12 11 10 9 10 11 15 19 21 21 21 20 19 21 21
14 13 12 10 8 8 9 8 7 7 6 7 6 5 6 6 7 7 8 8 8 9 11 13 14 15 17 17 17 18 18 19 20 21 21 22 22 21 19 18 17 16 15 16 16 17 17 17 18 17 17 17 19 19 18 18 17 17 17 16 15 14 14 16 17 17 16 15 15 13 12 11 10 9 9 9 11 15 19 21 22 20 20 21 22
15 13 13 11 10 10 9 8 7 7 7 6 6 5 5 5 6 7 7 7 7 8 9 11 12 13 13 14 15 15 16 17 18 18 18 19 19 19 19 18 17 16 16 16 16 17 17 17 17 17 17 17 18 19 18 18 17 17 17 16 15 14 14 14 14 15 15 14 14 14 12 11 10 9 8 7 7 10 15 18 20 21 22 23 23
15 14 14 12 11 10 10 9 8 8 6 6 6 5 5 5 5 6 7 6 6 7 7 8 10 11 11 11 12 12 13 14 15 16 17 17 17 17 18 17 16 16 16 16 16 16 16 16 16 16 16 17 17 19 19 18 18 18 18 17 16 15 15 13 12 12 13 13 13 13 13 11 10 9 7 5 4 6 10 13 15 17 18 19 20
16 15 15 13 11 11 11 11 9 8 7 6 6 6 5 5 5 5 6 5 5 6 6 7 8 9 9 10 10 11 11 12 13 14 15 16 16 17 16 16 15 15 14 15 15 15 15 15 15 15 16 16 17 18 19 19 19 19 19 19 19 18 18 16 14 12 11 11 11 12 12 11 9 8 6 5 4 4 7 10 12 14 15 17 19
17 16 15 14 12 12 12 11 9 8 8 7 6 6 5 4 4 4 5 5 5 5 5 6 7 8 8 9 9 10 11 12 12 13 14 15 15 16 15 15 14 14 13 13 14 14 14 14 14 14 14 15 15 17 18 19 19 19 20 21 21 21 20 19 17 15 13 12 12 12 11 11 9 7 6 5 4 4 6 8 11 13 15 17 18
18 17 16 15 13 12 12 11 10 9 8 7 6 6 5 4 4 4 4 4 4 5 5 5 5 6 7 8 9 10 10 11 11 11 12 13 14 14 14 14 13 13 13 13 13 13 13 13 14 13 13 14 14 15 17 18 19 20 21 21 22 22 22 20 19 17 15 13 13 12 11 10 8 7 5 4 3 4 5 7 9 11 14 16 17
20 19 17 16 15 14 13 12 11 10 9 8 7 7 6 5 5 5 4 4 4 4 4 4 4 5 6 7 8 9 10 10 10 10 10 11 12 13 13 12 12 12 12 13 13 13 13 13 14 13 13 13 14 14 15 16 18 19 20 21 22 22 22 20 19 17 15 13 13 11 10 9 8 6 4 2 3 4 5 7 9 10 12 14 15
21 20 19 17 16 15 14 13 12 11 10 9 8 7 6 5 5 5 5 4 4 4 4 4 4 4 5 5 6 7 8 9 9 9 9 9 10 11 12 11 11 11 12 12 12 12 13 13 14 14 13 13 13 13 14 15 16 17 19 20 20 20 21 20 19 17 15 13 12 10 9 8 6 5 3 2 2 4 5 7 9 10 12 13 14
22 21 20 19 17 16 14 14 12 11 11 10 8 8 7 5 5 5 5 5 4 5 5 4 4 4 4 4 5 6 7 8 8 8 8 8 8 9 10 11 10 10 10 11 11 11 12 12 13 13 13 14 14 14 14 14 15 16 16 17 18 19 19 19 19 18 16 14 13 11 9 7 6 4 2 1 2 4 6 8 8 9 11 12 13
23 22 20 19 18 16 16 15 14 12 11 10 9 8 7 6 6 5 5 6 6 6 6 5 4 4 4 4 4 5 7 8 8 7 8 8 8 8 9 9 9 9 10 10 10 10 11 11 12 13 13 13 14 14 14 14 15 15 15 15 15 16 17 17 17 17 16 15 13 12 10 8 7 5 3 1 2 4 6 8 9 10 11 12 14
24 22 21 20 19 18 17 16 15 14 12 11 10 10 9 8 7 7 6 6 7 7 7 6 6 5 5 4 4 5 7 7 7 7 8 8 8 8 8 8 8 8 9 9 9 9 9 10 11 11 12 13 13 14 14 15 16 15 15 14 14 13 13 14 15 15 15 14 13 12 11 10 8 7 5 3 2 3 5 7 8 10 12 13 14
24 23 22 20 19 18 18 16 15 14 13 11 11 12 10 9 9 8 7 8 8 8 8 8 7 7 6 4 4 5 7 8 7 7 8 8 8 8 9 8 7 8 8 8 8 8 8 8 9 10 10 11 12 13 14 15 16 16 15 14 13 12 11 11 12 13 13 13 12 11 10 9 8 7 6 5 4 3 3 5 7 9 12 14 15
24 23 22 20 19 18 17 17 16 15 14 12 12 13 12 11 10 9 8 9 9 9 9 9 8 8 7 6 6 7 7 8 7 7 8 8 9 9 9 9 8 8 8 7 7 7 7 7 8 9 9 9 11 12 13 14 15 15 14 13 12 11 10 10 10 10 11 11 11 10 10 8 7 6 6 5 4 4 3 5 6 8 10 12 14
Wind_Direction
306 304 305 305 303 304 304 303 303 301 300 299 299 298 299 300 301 302 302 303 304 303 300 297 295 294 292 290 289 287 285 284 281 280 278 276 276 276 277 279 280 281 283 283 282 280 281 283 284 286 291 291 286 280 276 272 268 268 267 263 262 264 266 265 265 274 275 273 277 277 278 284 289 286 286 286 279 270 271 278 283 284 287 289 286
304 303 305 305 304 305 304 303 303 302 301 301 300 300 301 302 303 303 303 304 304 302 299 297 295 292 290 289 287 285 283 281 278 276 275 274 274 273 274 276 276 278 281 282 283 282 283 284 283 282 286 291 290 283 280 276 267 260 256 253 254 256 259 264 267 270 272 271 272 273 274 279 284 284 283 282 280 277 277 278 280 281 281 282 280
304 305 305 305 305 305 304 303 303 303 303 302 302 303 304 304 305 304 304 305 304 302 298 296 293 291 289 287 286 284 282 280 278 274 270 270 269 269 269 271 273 275 276 277 279 281 282 283 284 284 285 289 290 287 282 278 269 258 250 249 251 253 256 264 273 276 275 273 270 270 271 271 274 277 278 279 278 276 277 277 276 275 274 273 274
304 305 305 305 305 304 302 303 303 303 303 303 304 305 306 307 306 306 306 306 304 302 298 294 292 290 288 286 285 284 282 280 278 276 273 270 268 267 267 267 268 270 271 273 275 277 278 279 279 281 284 286 287 286 281 278 271 256 246 246 248 250 258 267 273 275 276 278 272 268 268 267 268 270 271 273 273 269 269 271 271 269 267 266 269
304 304 305 305 305 303 302 302 302 302 303 304 305 306 307 307 307 307 307 305 304 301 297 294 292 290 287 286 285 283 281 279 276 274 273 271 269 267 266 265 265 265 266 269 272 274 275 275 275 277 279 281 282 280 274 273 273 258 241 239 243 249 260 267 270 270 267 268 269 267 267 266 265 266 264 265 265 262 261 263 264 263 261 260 264
303 304 305 305 304 302 303 303 303 303 304 305 306 306 307 307 307 308 307 305 303 299 296 293 291 289 288 287 285 282 280 277 275 273 272 270 268 266 264 264 264 265 265 267 269 270 270 271 272 272 273 275 275 276 271 267 271 266 247 236 237 245 254 256 258 261 260 259 260 262 263 263 263 263 260 259 259 258 258 257 256 255 255 257 263
302 304 304 303 302 301 303 304 304 305 305 306 306 306 306 307 307 308 307 305 303 300 297 293 291 290 287 285 283 281 280 277 274 272 271 269 266 264 263 262 262 262 262 262 263 264 266 267 267 267 268 270 269 270 271 267 265 266 261 249 239 238 244 249 255 262 263 262 260 256 256 257 259 260 261 259 258 258 256 250 247 248 251 256 264
303 304 302 300 300 301 303 304 305 306 306 306 306 306 307 308 309 309 307 306 303 300 297 294 293 291 288 288 286 283 282 280 278 275 271 268 264 261 260 259 259 259 259 259 258 259 263 265 266 266 265 266 266 265 267 268 265 262 260 257 252 247 248 254 262 267 268 268 266 262 260 259 257 257 257 256 253 251 249 243 240 246 253 259 263
302 301 299 298 300 302 304 305 305 306 307 307 307 308 309 310 310 309 307 306 303 302 300 299 297 296 297 296 293 289 285 283 283 278 271 267 263 259 257 255 255 255 255 256 257 257 260 262 263 264 264 263 263 262 261 261 262 262 258 254 252 252 253 256 260 264 267 267 264 260 259 260 259 254 247 244 244 245 246 241 240 247 255 259 261
298 297 296 298 301 303 305 305 306 307 307 308 309 310 311 311 311 309 308 306 306 305 305 303 298 296 299 298 295 293 289 284 283 278 270 267 263 258 255 252 251 251 251 252 253 253 255 257 258 259 259 259 258 257 256 255 254 256 257 253 250 249 251 254 255 257 261 263 261 257 251 250 255 254 244 240 242 245 243 238 240 247 250 254 260
295 296 296 299 301 303 305 305 306 307 307 309 311 311 312 312 311 310 309 308 308 308 307 303 297 296 298 299 297 296 293 292 289 282 274 270 265 258 254 251 249 247 246 247 248 249 250 251 253 254 254 254 254 252 252 252 251 251 251 250 248 246 246 246 248 250 252 254 259 262 258 248 248 250 247 243 242 242 241 237 238 239 234 234 252
295 297 297 299 301 303 304 305 306 307 309 311 312 312 313 312 311 311 309 309 310 309 306 302 300 301 301 300 298 297 298 300 295 286 279 276 270 263 256 251 247 243 243 244 245 247 248 249 250 252 252 253 253 252 251 251 250 250 250 250 247 244 242 240 239 240 243 249 254 259 261 260 256 251 246 243 243 243 242 239 235 231 226 223 231
297 298 299 300 300 302 303 305 306 307 309 311 312 312 312 312 312 311 309 310 310 307 306 305 304 305 304 303 302 300 302 305 301 292 284 279 275 268 261 254 248 243 241 242 244 245 246 247 248 250 251 252 251 250 251 251 250 249 250 251 249 247 244 241 239 239 243 248 251 253 256 261 266 263 254 248 244 240 237 234 232 231 228 225 231
297 299 299 299 299 301 303 304 306 307 309 311 312 312 312 310 311 311 310 310 309 307 308 309 308 308 307 307 306 305 306 310 307 297 290 286 279 272 265 257 251 248 245 243 244 246 246 245 246 249 250 250 249 247 247 248 249 248 248 248 249 248 247 245 244 244 247 250 252 254 256 259 263 268 267 261 250 241 237 235 233 231 229 231 239
297 298 298 298 300 302 303 304 306 308 309 311 312 311 311 310 311 311 310 309 308 308 309 309 309 309 309 309 308 308 311 316 312 304 302 300 288 271 262 257 252 249 247 246 245 246 247 245 245 249 251 250 249 246 245 246 247 246 245 246 247 247 247 247 246 246 249 252 252 253 254 257 261 263 267 269 260 245 237 240 241 234 229 230 237
295 295 296 299 301 302 304 305 307 308 309 311 311 311 311 311 311 312 311 310 308 307 308 308 308 309 310 312 310 309 316 323 321 316 319 327 324 290 259 250 250 248 246 246 246 247 247 245 245 249 251 252 252 246 241 242 244 244 244 244 245 246 246 247 247 247 249 250 250 249 251 257 260 259 261 265 261 248 236 238 243 232 220 217 224
292 293 296 298 300 302 304 306 307 307 308 310 310 310 310 310 311 311 310 307 306 306 307 308 309 310 311 313 312 310 317 325 326 325 331 345 357 345 287 249 244 246 247 247 247 247 248 247 247 249 250 254 256 249 239 237 238 240 241 242 243 245 246 247 246 245 245 245 245 245 248 253 256 255 257 260 258 253 246 240 231 213 203 200 210
291 294 296 298 300 302 304 306 306 306 307 308 308 309 309 308 309 310 306 302 301 303 306 306 308 310 310 312 314 312 314 323 326 330 338 345 356 1 346 289 253 248 250 251 249 248 250 251 250 249 250 256 260 253 240 233 234 236 237 237 238 241 244 246 244 242 241 241 241 243 245 249 252 252 255 258 258 253 244 240 233 215 203 201 209
293 296 297 298 300 302 304 305 304 304 306 307 307 308 309 308 308 305 300 298 299 300 302 302 304 310 311 313 317 314 314 324 330 331 338 344 351 358 358 346 307 273 263 259 256 253 253 254 253 250 251 257 264 260 247 234 229 232 235 233 232 239 244 244 240 239 239 238 239 241 243 245 249 251 254 257 260 255 244 240 236 222 211 210 212
296 297 297 299 300 302 303 303 303 305 305 306 307 308 308 308 306 302 301 303 303 302 303 301 302 308 312 315 317 317 320 330 334 333 334 340 348 352 352 352 345 327 307 289 276 269 265 262 260 256 253 254 258 259 253 239 230 230 232 229 228 238 244 243 238 238 239 239 240 241 242 245 246 249 252 255 259 258 248 240 233 224 217 215 212
296 297 298 300 300 301 302 303 305 306 306 306 307 307 309 308 305 304 304 305 305 305 306 305 305 307 311 315 318 322 329 333 333 333 334 336 343 348 347 345 342 337 335 328 314 305 299 291 284 279 273 266 262 259 254 246 235 229 228 228 233 239 241 238 237 238 239 241 243 242 243 245 246 248 250 251 255 256 247 237 232 229 225 221 216
295 297 298 299 300 301 304 307 308 309 309 309 307 307 311 312 307 306 306 305 306 306 306 309 309 308 311 316 318 323 332 333 331 331 333 334 338 340 339 339 338 336 332 327 320 318 316 310 304 299 294 287 280 272 265 256 246 235 231 232 236 240 238 235 236 235 234 238 242 242 241 242 242 244 245 245 248 249 243 234 231 232 231 230 228
295 297 297 298 301 304 307 310 312 312 312 313 309 307 310 312 311 311 309 307 307 308 309 312 311 309 313 314 315 324 331 329 330 330 330 330 333 334 333 333 335 334 326 317 316 318 314 311 308 303 298 295 289 283 277 266 255 247 244 242 241 239 235 232 229 226 226 230 233 235 236 236 236 237 238 239 240 242 241 234 229 229 233 236 237
294 295 296 299 303 307 310 313 315 316 316 316 311 308 311 314 315 315 313 311 308 307 311 312 308 308 310 308 311 329 333 328 328 329 327 328 329 329 330 331 332 331 324 315 315 315 311 309 308 303 302 303 299 293 289 281 266 255 252 254 254 250 240 230 221 216 218 221 223 227 229 230 231 232 233 235 236 238 239 235 230 230 234 238 241
291 292 296 300 305 310 313 315 319 321 321 318 311 308 312 315 316 317 316 314 310 307 307 306 303 302 303 305 316 330 332 330 330 329 328 328 328 327 329 329 329 328 323 317 315 313 310 309 308 305 304 304 302 296 291 290 283 271 261 255 257 266 259 233 215 210 213 215 219 224 226 228 230 231 234 236 237 236 237 235 234 235 237 237 237
287 291 296 301 309 313 314 317 322 323 321 318 313 310 311 313 313 315 315 312 309 306 301 297 298 301 303 311 327 332 332 333 332 329 329 329 328 328 328 328 328 327 323 319 316 314 314 313 313 313 313 310 307 300 292 287 283 276 269 259 254 264 266 234 209 206 213 217 220 224 225 227 230 232 234 236 234 235 237 235 232 230 227 226 225
283 289 295 303 310 314 314 315 316 318 320 321 319 315 314 314 312 310 309 306 302 299 296 292 296 305 314 328 336 334 334 334 330 328 329 328 327 327 328 329 328 325 320 320 321 319 319 319 317 319 321 320 321 323 320 315 301 281 271 264 257 259 260 233 212 211 216 219 223 227 227 228 230 232 233 233 233 237 238 233 225 221 219 217 215
279 285 293 302 309 312 313 311 311 316 321 323 321 317 316 318 315 310 309 304 296 294 297 300 310 325 337 343 341 335 333 331 328 326 326 325 325 327 329 328 323 319 320 325 324 319 318 325 331 336 340 344 347 349 351 354 355 345 312 278 259 257 255 236 218 215 218 221 225 229 229 229 230 231 231 231 233 237 236 229 221 217 213 209 205
274 282 291 300 307 310 310 309 312 317 320 322 322 319 317 317 315 314 316 313 306 307 313 323 336 346 350 348 343 337 329 326 326 325 324 326 327 329 328 324 320 325 337 336 327 328 347 3 5 4 5 5 3 2 2 1 359 2 4 355 318 277 256 233 218 217 220 221 223 226 227 229 230 231 231 230 230 232 230 223 217 214 209 204 203
269 277 286 295 303 306 307 308 313 318 321 323 322 320 321 321 318 318 323 325 327 329 332 337 344 348 350 349 344 334 326 324 326 328 328 330 332 332 331 331 340 359 3 354 360 25 32 28 20 15 12 7 4 1 0 1 1 359 1 6 10 3 336 257 226 223 223 221 221 224 226 227 228 229 228 226 227 227 224 219 215 211 205 202 205
261 271 279 288 297 302 303 304 309 316 322 324 322 320 324 329 332 334 334 337 341 344 345 348 349 348 347 346 344 338 331 330 334 336 337 339 340 340 343 356 11 12 8 28 47 43 36 32 23 16 12 8 4 0 356 357 359 358 358 1 4 6 4 359 345 299 244 228 225 225 224 224 225 225 223 222 223 222 220 217 214 210 205 203 206
252 262 273 284 294 299 298 300 304 309 317 324 325 323 324 328 333 341 345 345 347 350 355 357 355 353 353 351 349 346 342 340 344 347 348 350 351 351 4 21 25 21 31 55 52 40 33 31 24 16 12 8 2 358 356 355 354 354 356 358 359 360 360 356 348 337 319 284 251 238 230 225 222 221 221 220 219 217 214 212 209 206 205 205 207
244 255 268 281 290 294 293 295 299 304 313 322 324 323 324 325 328 334 340 345 350 355 0 1 359 358 358 357 355 352 350 350 354 358 0 3 4 9 30 40 38 40 49 51 44 34 27 25 20 14 11 7 2 357 354 352 351 352 354 354 352 352 354 355 353 342 328 314 294 278 260 237 224 221 220 219 216 213 209 207 206 204 204 204 204
238 248 263 275 282 285 286 289 295 301 311 319 321 321 324 326 327 332 337 343 348 351 355 1 3 2 360 359 359 358 358 1 5 7 11 15 18 28 60 63 50 45 44 41 34 27 22 18 13 9 5 2 359 356 352 350 348 347 348 349 349 350 352 355 358 353 343 330 310 294 287 273 247 232 223 216 212 210 207 204 201 200 201 202 199
234 244 254 259 264 269 273 281 291 298 307 317 323 324 326 327 329 334 339 343 344 343 346 355 2 3 1 1 1 1 4 10 14 18 23 25 27 40 59 54 42 35 33 30 25 22 20 15 9 4 0 357 356 353 350 350 348 345 345 345 344 348 353 355 356 355 352 346 334 316 299 285 275 262 239 218 208 206 205 202 199 198 199 200 196
230 240 245 244 248 255 263 277 289 295 303 314 321 323 324 325 327 331 338 344 344 342 345 353 360 5 10 11 7 4 8 14 17 22 30 33 38 49 52 45 36 30 26 23 18 16 15 11 7 4 359 355 354 353 352 350 348 348 350 349 346 347 351 352 351 353 354 353 347 336 320 297 284 281 261 227 211 207 206 203 200 200 199 197 193
227 236 238 235 238 248 262 277 285 289 296 304 310 316 321 324 324 326 334 343 346 348 351 356 0 5 12 17 10 4 9 21 26 29 36 41 46 52 52 47 41 35 28 22 16 11 9 7 6 5 2 357 356 356 355 354 353 353 356 358 357 353 350 351 353 356 358 358 355 348 337 319 296 287 278 244 217 209 207 204 201 200 199 195 189
225 230 229 224 230 250 267 274 275 278 285 289 297 310 318 318 319 324 332 342 349 353 357 3 5 4 7 11 5 359 10 30 34 31 34 39 42 45 47 45 43 40 31 24 19 13 9 8 7 7 6 3 0 359 358 358 359 359 1 3 5 1 355 356 359 1 1 360 357 352 345 335 316 298 288 263 228 211 206 203 199 195 192 188 185
221 221 218 215 226 248 258 259 257 264 277 282 289 303 311 310 313 321 329 338 350 356 0 7 9 7 8 10 2 356 10 27 27 22 25 30 33 37 39 38 38 36 30 24 21 16 13 12 12 12 12 10 7 4 3 2 3 5 6 6 8 9 5 2 1 2 1 359 355 351 347 342 331 315 302 281 244 217 205 200 196 191 187 186 188
217 212 208 207 217 230 236 237 241 251 263 272 279 290 296 296 305 316 322 331 345 356 3 9 10 9 12 13 5 1 14 25 21 17 20 24 26 30 32 32 31 29 26 22 20 18 18 18 16 15 17 17 13 10 8 7 7 10 12 11 10 11 9 4 2 2 1 358 355 352 348 345 339 328 314 297 258 224 209 201 196 194 192 191 191
214 208 205 204 209 219 224 226 231 238 248 259 267 274 277 279 292 307 315 322 338 350 1 10 11 9 12 14 11 12 22 26 21 19 22 22 22 25 27 27 27 26 24 22 20 20 22 25 24 23 22 22 20 17 15 15 15 14 15 17 16 14 13 11 7 2 359 357 356 353 349 345 343 336 323 305 270 229 212 203 197 194 192 190 187
212 209 206 203 205 212 217 218 218 222 234 249 256 258 262 270 284 298 303 311 328 341 352 6 10 8 9 12 14 19 29 32 27 23 22 22 22 23 24 24 25 25 24 23 21 21 24 29 31 31 29 28 28 24 21 20 20 18 18 20 20 18 17 16 12 6 360 357 356 355 351 346 340 334 322 304 277 230 204 195 191 188 186 184 182
212 211 208 205 205 210 212 212 211 217 231 244 250 250 251 263 278 285 291 300 313 326 341 357 4 2 3 8 12 17 26 31 28 24 22 21 20 20 20 22 24 25 27 26 24 24 27 31 35 39 39 38 36 32 27 25 25 22 19 20 21 21 19 18 15 9 3 359 358 356 353 348 340 332 322 304 276 233 201 188 182 180 179 178 178
213 210 208 206 207 209 211 210 210 219 229 235 240 242 242 247 257 265 278 290 300 313 328 343 354 356 355 359 5 9 16 22 24 23 22 19 17 17 18 20 22 24 28 29 26 26 28 30 33 40 45 46 44 40 33 31 31 27 21 19 20 20 20 18 16 11 4 1 358 356 355 352 345 332 320 302 266 229 202 185 178 175 174 173 171
212 209 208 207 206 208 211 209 209 217 225 230 234 236 232 234 244 251 264 279 288 303 315 324 337 345 348 354 359 1 5 10 13 17 18 17 15 14 14 18 23 24 26 28 27 26 28 29 29 33 39 43 46 44 38 34 34 32 27 22 21 20 20 19 18 15 11 4 359 358 1 359 349 335 321 294 241 213 195 185 179 175 172 170 169
211 209 208 207 206 208 210 208 207 212 221 228 234 233 226 229 241 246 251 263 276 285 294 303 318 327 333 345 351 352 355 357 360 5 10 11 11 10 10 14 22 25 27 29 29 28 30 29 27 28 32 35 39 42 41 38 36 34 30 27 23 21 21 21 21 21 18 13 8 7 7 2 353 341 326 290 232 203 187 180 177 174 172 171 169
210 210 208 208 207 208 209 208 206 211 218 223 227 228 224 229 242 245 245 249 259 269 275 282 295 309 317 330 339 342 344 345 346 351 357 358 1 4 5 10 18 23 27 30 30 30 31 31 28 27 29 30 33 35 37 36 35 33 31 28 24 20 19 20 21 23 23 21 20 20 15 9 7 4 348 287 210 191 180 174 174 174 172 169 166
209 209 208 208 208 208 208 207 206 210 215 217 219 223 226 229 234 241 245 246 251 260 268 269 274 288 301 316 326 328 330 332 334 340 345 347 350 355 358 3 12 18 22 26 28 29 31 32 29 27 27 27 28 28 29 30 29 27 26 27 25 21 17 16 17 21 23 25 27 28 24 21 24 29 40 105 158 174 173 169 170 171 169 166 163
209 209 208 209 209 208 208 209 208 209 212 213 216 222 226 227 229 237 245 247 251 260 264 263 266 274 282 293 309 313 316 322 327 331 335 337 341 346 350 355 4 12 15 18 22 25 27 29 29 27 26 26 25 24 24 24 23 20 19 21 22 21 19 17 16 17 20 23 27 30 30 30 33 38 49 70 101 144 159 161 162 163 161 159 158
210 210 209 210 210 209 210 211 211 212 214 215 219 223 225 225 228 233 240 245 250 257 260 261 266 271 272 275 289 298 305 314 319 323 328 331 333 337 340 343 352 2 7 10 13 17 21 24 25 23 21 22 22 22 21 20 17 13 11 12 13 15 20 21 18 17 18 20 23 27 30 32 36 41 48 56 65 86 127 142 149 155 157 156 155
209 210 210 210 210 210 211 211 212 213 215 215 218 222 225 225 227 230 237 245 251 256 259 264 269 269 264 263 272 282 293 304 309 313 319 322 323 328 333 334 337 346 353 356 3 9 12 15 18 16 15 16 16 15 15 14 11 8 6 7 8 10 15 20 22 23 22 20 19 22 25 28 36 47 54 61 67 80 106 129 143 153 156 156 157